Regional Weather Roundup
Issued by NWS

Home | Current Version | Previous Version | Graphics & Text | Print | Product List | Glossary On
Versions: 1 2 3 4 5 6 7 8 9 10 11 12 13 14 15 16 17 18 19 20 21 22 23 24 25 26 27 28 29 30 31 32 33 34 35 36 37 38 39 40 41 42 43 44 45 46 47 48 49 50
000
ASUS43 KLSX 302007
RWRMO

WEATHER SUMMARY FOR MISSOURI
NATIONAL WEATHER SERVICE SPRINGFIELD MO
300 PM CDT WED JUL 30 2014

NOTE: "FAIR" INDICATES FEW OR NO CLOUDS BELOW 12,000 FEET WITH NO
       SIGNIFICANT WEATHER AND/OR OBSTRUCTIONS TO VISIBILITY.
       CURRENT SKY AND/OR WEATHER CONDITIONS ARE NOT AVAILABLE FOR
       CHILLICOTHE AND FARMINGTON.

MOZ001>031-035>038-043-044-053-054-302100-
...NORTHERN AND WESTERN MISSOURI...

CITY           SKY/WX    TMP DP  RH WIND       PRES   REMARKS
KANSAS CTY INT CLOUDY    79  56  45 NW5       30.10F
KANSAS C DTWN  CLOUDY    80  56  43 NE6       30.08F
LEE`S SUMMIT   CLOUDY    79  57  46 VRB3      30.10F
ST JOSEPH      PTSUNNY   79  57  46 NE9       30.10F
CHILLICOTHE      N/A     80  55  42 VRB3      30.09F
KIRKSVILLE     MOSUNNY   79  55  43 NE7       30.10F

$$
MOZ066>068-077>081-088>096-101>105-302100-
...SOUTHWEST MISSOURI...

CITY           SKY/WX    TMP DP  RH WIND       PRES   REMARKS
SPRINGFIELD    LGT RAIN  72  65  78 VRB3      30.10F
JOPLIN         LGT RAIN  67  66  97 E6        30.10F FOG

$$
MOZ032>034-039>042-045>050-055>058-069>072-302100-
...CENTRAL MISSOURI...

CITY           SKY/WX    TMP DP  RH WIND       PRES   REMARKS
COLUMBIA       PTSUNNY   82  57  42 VRB3      30.08F
JEFFERSON CITY PTSUNNY   79  56  45 CALM      30.07F
ROLLA          CLOUDY    75  56  51 E5        30.09S
SEDALIA        PTSUNNY   79  58  48 SW6       30.09F
WHITEMAN AFB   MOSUNNY   77  49  36 S6        30.09S
OSAGE BEACH    CLOUDY    75  57  53 CALM      30.10F

$$
MOZ051-052-059>065-302100-
...EAST CENTRAL MISSOURI...

CITY           SKY/WX    TMP DP  RH WIND       PRES   REMARKS
ST LOUIS INTL  PTSUNNY   83  55  38 NE7       30.07F
SPIRIT OF STL  PTSUNNY   84  53  34 N5        30.05F
ST CHARLES     MOSUNNY   82  56  40 N6        30.06F

$$
MOZ072>076-082>087-097>100-106>115-302100-
...SOUTH CENTRAL AND SOUTHEAST MISSOURI...

CITY           SKY/WX    TMP DP  RH WIND       PRES   REMARKS
CAPE GIRARDEAU CLOUDY    76  59  55 SW5       30.10S
FARMINGTON     CLOUDY    75  61  60 SW5       30.12F
POPLAR BLUFF   CLOUDY    78  60  53 S6        30.08F
WEST PLAINS    CLOUDY    71  64  78 SW6       30.12F

$$



USA.gov is the U.S. government's official web portal to all federal, state and local government web resources and services.